sat.trackr.live / text

‹ back to catalog

VELOX-CI

NORAD 41166 · 2015-077A

PAYLOAD ACTIVE UNKNOWN

§ Identity

Operator
Country
SING
Launch date
2015-12-16
Launch site
SRILR
Launch vehicle
Mass (kg)
RCS (m²)
0.55

External: N2YO · Heavens-Above · Gunter

§ Orbital elements

Epoch: 2026-05-24T14:38:20.008320Z

Period
92.97 min
Inclination
14.9822°
Eccentricity
0.0004414
Mean motion
15.48851940 rev/d
Perigee alt
417.1 km
Apogee alt
423.1 km
Semi-major
6,798.2 km
B*
3.3007e-4
RAAN
266.9543°
Arg perigee
237.1085°
Mean anomaly
122.8816°
Rev number
57,906

§ Raw data

VELOX-CI1 41166U 15077A   26144.60995380  .00019548  00000+0  33007-3 0  99972 41166  14.9822 266.9543 0004414 237.1085 122.8816 15.48851940579060

JSON: /api/v1/satellites/41166 · /tle

For live sub-satellite position, see the globe view (requires WebGL).

§ Visibility from observer

Set your observer location to see the next 7 days of passes ≥ 10°. The values pass through the URL so the page stays shareable.

No JS? Fill the form by hand. The geolocation button needs JavaScript.